{"data":{"norad_id":66952,"epoch":"2026-05-25T01:08:25.562112Z","epoch_age_seconds":71701,"freshness":"FRESH","line1":"1 66952U 25286AD  26145.04751808  .00031353  00000+0  93483-3 0  9996","line2":"2 66952  53.1605   3.3383 0000665 104.5622 255.5454 15.34412740 27119","mean_motion":15.3441274,"eccentricity":6.65e-5,"inclination_deg":53.1605,"raan_deg":3.3383,"arg_perigee_deg":104.5622,"mean_anomaly_deg":255.5454,"bstar":0.00093483,"rev_number":2711,"period_min":93.846978877404,"perigee_km":462.21046114636,"apogee_km":463.12028786217,"semimajor_km":6840.8023745043,"source":"CELESTRAK","updated_at":"2026-05-25T13:38:21.391800Z"}}